カタログに戻る

MIDAS 6

FTV 1169

運用中軍事PO
NORAD 574·PAYLOAD·🇺🇸 United States

打ち上げ May 9, 1963 から Vandenberg Space Force Base

Loading…

次のパス (今後24時間)

TLE

最新Source: Space-Track

元期: Sep 14, 2026, 05:08 UTC

1 00574U 63014A   26257.21440983 -.00000002  00000-0 -23202-2 0  9998
2 00574  87.3645 187.4070 0032060  26.0575 334.1886  8.65276991225481

AllMySatでMIDAS 6をリアルタイム追跡

Download on the App Store